Total_Precipitation_Accumulation
1.33 1.32 1.42 1.51 1.38 1.51 1.79 2.01 1.97 2.11 2.11 1.93 1.62 1.41 1.21 1.16 1.15 1.24 1.47 1.48 1.51 1.55 1.84 2.08 2.03 1.87 1.71 1.43 1.15 1.06 1.11 1.08 0.96 0.72 0.56 0.51 0.56 0.64 0.61 0.52 0.45 0.39 0.32
1.60 1.67 1.70 1.67 1.50 1.52 1.76 2.03 1.96 2.22 2.14 2.10 1.73 1.59 1.39 1.30 1.20 1.21 1.42 1.61 1.53 1.42 1.51 1.93 2.19 2.12 2.01 1.86 1.48 1.17 1.13 1.19 1.09 0.81 0.62 0.56 0.60 0.66 0.69 0.64 0.55 0.43 0.32
1.79 1.80 1.73 1.70 1.69 1.67 1.86 1.96 2.02 2.17 1.99 1.85 1.72 1.62 1.50 1.39 1.25 1.23 1.36 1.56 1.48 1.42 1.49 1.77 2.10 2.18 2.10 2.09 1.95 1.63 1.39 1.36 1.25 0.99 0.76 0.65 0.65 0.65 0.67 0.69 0.62 0.47 0.33
1.88 1.99 1.78 1.70 1.93 1.96 2.06 2.24 2.20 2.28 2.32 2.18 1.89 1.59 1.43 1.39 1.20 1.23 1.33 1.51 1.59 1.35 1.50 1.78 2.04 2.10 2.21 2.36 2.46 2.31 1.92 1.65 1.49 1.35 1.12 0.90 0.83 0.76 0.68 0.64 0.61 0.46 0.30
2.02 2.29 2.06 2.04 2.15 2.16 2.17 1.94 2.36 2.62 2.54 2.37 1.98 1.66 1.42 1.29 1.19 1.16 1.20 1.20 1.36 1.39 1.36 1.51 1.80 1.86 2.11 2.49 2.66 2.71 2.58 2.25 1.99 1.98 1.90 1.63 1.42 1.13 0.86 0.69 0.58 0.44 0.30
2.24 2.47 2.24 2.19 2.24 2.30 2.22 2.28 2.58 2.58 2.35 2.32 1.88 1.50 1.40 1.19 1.17 1.07 0.99 1.03 1.10 1.10 1.19 1.33 1.58 1.34 1.58 1.90 2.13 2.42 2.76 2.87 2.67 2.73 2.84 2.63 2.24 1.65 1.11 0.82 0.61 0.47 0.36
2.14 2.39 2.22 2.37 2.32 2.18 2.15 2.29 2.51 2.51 2.25 2.47 2.25 1.69 1.28 1.00 0.99 0.90 0.90 0.97 0.96 1.07 1.19 1.30 1.48 1.49 1.50 1.52 1.53 1.76 2.37 2.89 2.98 2.96 3.28 3.49 3.08 2.23 1.46 1.04 0.72 0.55 0.45
2.01 2.11 2.29 2.16 2.14 2.13 2.13 2.29 2.44 2.24 1.97 2.43 2.50 2.32 1.67 1.22 0.90 0.77 0.98 1.08 1.05 1.15 1.14 1.22 1.46 1.69 1.64 1.74 1.44 1.30 1.81 2.43 2.79 2.87 3.01 3.28 3.09 2.42 1.73 1.29 0.85 0.60 0.52
1.89 1.99 2.10 2.11 2.02 2.01 2.00 2.17 2.23 2.18 2.05 2.21 2.45 2.60 2.19 1.59 1.23 0.87 0.85 0.97 1.15 1.29 1.23 1.25 1.33 1.48 1.51 1.79 1.88 1.61 1.51 1.68 2.12 2.66 2.89 2.89 2.64 2.17 1.73 1.47 1.19 0.86 0.64
1.81 1.87 1.89 1.88 1.88 1.83 1.82 1.78 1.89 2.20 2.24 2.06 2.24 2.30 2.23 2.05 1.80 1.24 0.97 0.97 1.07 1.15 1.24 1.17 1.12 1.31 1.47 1.66 1.78 1.64 1.52 1.45 1.62 2.24 2.52 2.50 2.33 1.95 1.64 1.57 1.70 1.46 1.01
1.61 1.52 1.55 1.72 1.77 1.69 1.64 1.66 1.78 1.93 1.96 1.94 2.04 2.16 2.18 2.11 1.88 1.58 1.15 1.00 0.96 0.89 0.99 1.03 1.07 1.16 1.27 1.60 1.88 1.65 1.53 1.34 1.38 1.72 1.95 2.00 2.00 1.85 1.60 1.60 1.90 1.97 1.66
1.36 1.30 1.38 1.52 1.57 1.56 1.55 1.52 1.58 1.68 1.76 1.80 1.87 1.98 2.01 1.91 1.83 1.82 1.44 1.17 1.04 0.80 0.81 0.89 0.96 1.01 1.10 1.30 1.35 1.36 1.25 1.16 1.19 1.28 1.33 1.48 1.68 1.76 1.69 1.70 1.92 2.10 2.09
1.25 1.23 1.26 1.28 1.31 1.35 1.40 1.44 1.46 1.52 1.66 1.72 1.75 1.85 1.92 1.88 1.87 1.84 1.70 1.40 1.24 0.89 0.87 0.90 0.91 1.02 0.99 1.18 1.33 1.22 1.05 0.97 0.92 0.90 0.94 1.05 1.21 1.39 1.50 1.56 1.74 1.96 2.10
1.18 1.13 1.08 1.06 1.12 1.15 1.18 1.31 1.41 1.50 1.61 1.68 1.70 1.91 1.87 1.81 1.88 1.89 1.87 1.83 1.60 1.30 1.17 1.05 0.95 0.95 1.00 1.10 1.19 1.08 0.93 0.86 0.77 0.72 0.71 0.80 0.89 1.00 1.11 1.25 1.43 1.54 1.61
1.06 1.04 1.05 1.07 1.05 1.07 1.12 1.21 1.30 1.34 1.48 1.57 1.67 1.83 1.87 1.85 1.82 1.90 2.00 2.03 2.02 1.79 1.60 1.46 1.23 0.96 0.98 1.00 1.07 0.96 0.89 0.84 0.76 0.67 0.61 0.62 0.69 0.77 0.83 0.94 1.06 1.17 1.23
0.85 0.86 0.87 0.90 0.92 0.93 0.96 1.06 1.15 1.23 1.34 1.40 1.48 1.59 1.68 1.73 1.75 1.80 1.91 1.95 1.98 1.96 1.75 1.60 1.44 1.13 1.06 0.94 0.98 0.92 0.88 0.89 0.78 0.70 0.63 0.58 0.60 0.64 0.69 0.77 0.88 0.94 0.98
0.69 0.70 0.73 0.76 0.81 0.85 0.91 0.95 0.99 1.08 1.13 1.17 1.24 1.35 1.45 1.58 1.57 1.48 1.54 1.64 1.77 1.88 1.68 1.65 1.62 1.44 1.34 1.20 1.10 1.04 0.92 0.85 0.72 0.64 0.63 0.61 0.58 0.58 0.63 0.68 0.76 0.84 0.88
0.60 0.61 0.64 0.66 0.71 0.77 0.86 0.96 1.01 1.07 1.09 1.09 1.13 1.24 1.29 1.37 1.47 1.43 1.37 1.39 1.56 1.72 1.72 1.72 1.85 1.77 1.55 1.39 1.28 1.16 0.96 0.82 0.79 0.64 0.57 0.57 0.56 0.56 0.56 0.61 0.68 0.73 0.79
0.51 0.50 0.50 0.53 0.59 0.69 0.80 0.87 0.92 0.96 1.04 1.11 1.09 1.09 1.10 1.17 1.36 1.49 1.48 1.45 1.50 1.62 1.73 1.73 1.86 1.91 1.70 1.49 1.47 1.32 1.16 1.14 0.87 0.75 0.60 0.53 0.53 0.52 0.52 0.55 0.60 0.68 0.74
0.43 0.46 0.48 0.53 0.57 0.63 0.70 0.74 0.74 0.74 0.77 0.86 0.90 0.89 0.88 0.90 1.07 1.33 1.42 1.54 1.58 1.58 1.69 1.74 1.84 1.95 1.98 1.77 1.68 1.54 1.42 1.32 1.13 0.87 0.77 0.57 0.53 0.57 0.57 0.54 0.54 0.63 0.76
0.31 0.36 0.41 0.48 0.53 0.55 0.53 0.55 0.59 0.55 0.55 0.54 0.57 0.61 0.63 0.66 0.68 0.82 1.02 1.29 1.48 1.56 1.61 1.72 1.81 1.90 1.93 1.94 1.69 1.57 1.51 1.49 1.42 1.21 1.13 0.86 0.71 0.67 0.62 0.58 0.54 0.57 0.71
0.30 0.34 0.37 0.38 0.41 0.40 0.43 0.44 0.45 0.43 0.41 0.40 0.40 0.41 0.41 0.41 0.44 0.50 0.59 0.80 1.05 1.30 1.55 1.71 1.78 1.82 1.86 1.91 1.85 1.74 1.65 1.54 1.54 1.40 1.32 1.28 1.14 1.11 0.91 0.64 0.56 0.55 0.65
0.30 0.34 0.36 0.38 0.38 0.41 0.36 0.35 0.38 0.36 0.35 0.35 0.37 0.38 0.30 0.26 0.31 0.38 0.43 0.48 0.62 0.76 0.93 1.31 1.59 1.63 1.69 1.77 1.92 1.89 1.82 1.78 1.74 1.64 1.58 1.65 1.55 1.47 1.15 0.95 0.83 0.63 0.61
0.35 0.37 0.40 0.40 0.41 0.39 0.33 0.29 0.29 0.28 0.34 0.39 0.37 0.38 0.35 0.31 0.31 0.37 0.44 0.46 0.43 0.48 0.56 0.69 0.87 1.05 1.26 1.57 1.79 1.92 2.03 2.09 2.14 2.00 1.89 1.97 1.85 1.75 1.54 1.25 0.99 0.78 0.65
0.43 0.39 0.42 0.45 0.45 0.45 0.36 0.30 0.29 0.29 0.35 0.41 0.38 0.38 0.40 0.36 0.31 0.26 0.35 0.44 0.44 0.44 0.45 0.51 0.59 0.76 0.92 1.12 1.39 1.60 1.74 1.90 2.18 2.26 2.07 2.10 2.09 2.01 2.08 1.93 1.45 1.10 0.85
0.54 0.48 0.46 0.50 0.52 0.53 0.43 0.30 0.29 0.33 0.40 0.45 0.46 0.44 0.40 0.35 0.30 0.26 0.31 0.40 0.44 0.43 0.47 0.52 0.52 0.54 0.60 0.71 0.90 1.10 1.25 1.45 1.70 1.96 1.85 1.82 2.01 2.17 2.44 2.40 2.01 1.58 1.20